Location: Newark
(37.3394°N, 6.0261°W)
Time: 12:39:21
(UTC+00:00)

Envisat - Pass Details

Date: 19 March 2019
Orbit: 764 x 766 km, 98.2° (Epoch: 24 April)

Event Time Altitude Azimuth Distance (km) Brightness Sun altitude
Rises 20:27:37 0° 215° (SW) 3,220 6.4 -22.9°
Reaches altitude 10° 20:31:20 10° 244° (WSW) 2,300 6.0 -23.6°
Maximum altitude 20:33:30 13° 269° (W) 2,120 6.2 -24.0°
Drops below altitude 10° 20:35:41 10° 295° (WNW) 2,307 6.5 -24.4°
Sets 20:39:27 0° 324° (NW) 3,239 7.1 -25.1°
